Terminal Aerodrome Forecast
Issued by NWS Dallas/Fort Worth, TX

Home | Current Version | Previous Version | Text Only | Print | Product List | Glossary On
Versions: 1 2 3 4 5 6 7 8 9 10 11 12 13 14 15 16 17 18 19 20 21 22 23 24 25 26 27
000
FTUS44 KFWD 240906 AAB
TAFACT
TAF AMD
KACT 240906Z 2409/2506 17018G28KT P6SM SCT025 BKN250
      TEMPO 2409/2413 BKN022
     FM241300 17015KT P6SM SCT025 BKN040 BKN250
     FM241500 19018KT P6SM VCSH BKN045
      TEMPO 2415/2417 6SM -SHRA BKN030
     FM241800 22018G28KT P6SM BKN035
     FM242300 20018KT P6SM SCT250=

USA.gov is the U.S. government's official web portal to all federal, state and local government web resources and services.